カタログに戻る

USA 562

運用中軍事VLEO
NORAD 65708·PAYLOAD·🇺🇸 United States

打ち上げ Sep 22, 2025 から Vandenberg Space Force Base

Loading…

次のパス (今後24時間)

TLE

古いSource: Mike McCants

元期: May 5, 2026, 19:48 UTC

1 65708U 25213E   26125.82553180 0.00000000  00000-0  00000-0 0    00
2 65708  70.0210 133.6644 0004000  90.1270 269.8729 14.96713400    06

AllMySatでUSA 562をリアルタイム追跡

Download on the App Store